Tracking 30009 objects as of 7-Dec-2024
HD Live streaming from Space Station
objects crossing your sky now

GLOBALSTAR M084

Track GLOBALSTAR M084 now!
10-day predictions
GLOBALSTAR M084 is classified as:


NORAD ID: 38040
Int'l Code: 2011-080A
Perigee: 1,420.1 km
Apogee: 1,421.4 km
Inclination: 52.0 °
Period: 114.1 minutes
Semi major axis: 7791 km
RCS: 4.8621 m2 (large)
Launch date: December 28, 2011
Source: Globalstar (GLOB)
Launch site: TYURATAM MISSILE AND SPACE COMPLEX (TTMTR)
Your satellite tracking list
Your tracking list is empty




NASA's NSSDC Master Catalog

Two Line Element Set (TLE):
1 38040U 11080A   24342.14500611 -.00000064  00000-0  22212-3 0  9991
2 38040  52.0014 273.1204 0000848  39.2386  93.2975 12.62271937598691
Source of the keplerian elements: AFSPC